| time (UTC) | temp F | wind direction | speed MPH | gust MPH | rain 1hr in | rain 24hr in | rain mn in | humidity % | barometer mb |
| 20260506123735 | 64 | 90 | 0.0 | 0.0 | 0.00 | 0.00 | 0.00 | 82 | 1010.8 |
| 20260506122751 | 64 | 134 | 0.0 | 0.0 | 0.00 | 0.00 | 0.00 | 83 | 1010.6 |
| 20260506121836 | 64 | 82 | 0.0 | 0.0 | 0.00 | 0.00 | 0.00 | 82 | 1010.7 |
| 20260506121753 | 64 | 56 | 1.0 | 3.0 | 0.00 | 0.00 | 0.00 | 82 | 1010.7 |
| 20260506120836 | 63 | 73 | 1.0 | 2.0 | 0.00 | 0.00 | 0.00 | 82 | 1010.6 |
| 20260506115835 | 62 | 135 | 0.0 | 0.0 | 0.00 | 0.00 | 0.00 | 84 | 1010.7 |
| 20260506114851 | 61 | 225 | 0.0 | 0.0 | 0.00 | 0.00 | 0.00 | 85 | 1010.6 |
| 20260506113836 | 61 | 135 | 0.0 | 2.0 | 0.00 | 0.00 | 0.00 | 86 | 1010.2 |
| 20260506112838 | 60 | 76 | 0.0 | 0.0 | 0.00 | 0.00 | 0.00 | 86 | 1010.1 |
| 20260506111835 | 60 | 135 | 0.0 | 1.0 | 0.00 | 0.00 | 0.00 | 87 | 1010.0 |
| 20260506110852 | 60 | 90 | 0.0 | 0.0 | 0.00 | 0.00 | 0.00 | 87 | 1009.6 |
| 20260506105837 | 60 | 135 | 0.0 | 2.0 | 0.00 | 0.00 | 0.00 | 87 | 1009.5 |
| 20260506104934 | 60 | 135 | 0.0 | 2.0 | 0.00 | 0.00 | 0.00 | 87 | 1009.3 |
| 20260506103937 | 60 | 135 | 0.0 | 0.0 | 0.00 | 0.00 | 0.00 | 87 | 1009.3 |
| 20260506102934 | 60 | 135 | 0.0 | 0.0 | 0.00 | 0.00 | 0.00 | 87 | 1009.3 |
| 20260506101942 | 59 | 90 | 0.0 | 0.0 | 0.00 | 0.00 | 0.00 | 87 | 1009.2 |
| 20260506101036 | 59 | 90 | 0.0 | 0.0 | 0.00 | 0.00 | 0.00 | 86 | 1009.2 |
| 20260506100058 | 60 | 90 | 0.0 | 0.0 | 0.00 | 0.00 | 0.00 | 86 | 1009.0 |
| 20260506095035 | 60 | 90 | 0.0 | 0.0 | 0.00 | 0.00 | 0.00 | 85 | 1009.3 |
| 20260506093052 | 60 | 112 | 0.0 | 0.0 | 0.00 | 0.00 | 0.00 | 85 | 1009.5 |
| 20260506092138 | 61 | 90 | 0.0 | 0.0 | 0.00 | 0.00 | 0.00 | 85 | 1009.6 |
| 20260506091235 | 60 | 125 | 0.0 | 1.0 | 0.00 | 0.00 | 0.00 | 84 | 1009.7 |
| 20260506090235 | 60 | 225 | 0.0 | 0.0 | 0.00 | 0.00 | 0.00 | 84 | 1009.7 |
| 20260506085235 | 60 | 109 | 0.0 | 1.0 | 0.00 | 0.00 | 0.00 | 84 | 1009.6 |
| 20260506084235 | 60 | 112 | 0.0 | 0.0 | 0.00 | 0.00 | 0.00 | 85 | 1010.0 |
| 20260506083237 | 60 | 90 | 0.0 | 0.0 | 0.00 | 0.00 | 0.00 | 84 | 1009.8 |
| 20260506082236 | 60 | 110 | 0.0 | 1.0 | 0.00 | 0.00 | 0.00 | 83 | 1009.8 |
| 20260506081336 | 60 | 119 | 0.0 | 0.0 | 0.00 | 0.00 | 0.00 | 83 | 1009.7 |
| 20260506080336 | 61 | 45 | 0.0 | 0.0 | 0.00 | 0.00 | 0.00 | 82 | 1009.9 |
| 20260506080237 | 61 | 45 | 0.0 | 0.0 | 0.00 | 0.00 | 0.00 | 83 | 1009.9 |
| 20260506073334 | 61 | 90 | 0.0 | 0.0 | 0.00 | 0.00 | 0.00 | 82 | 1009.9 |
| 20260506071435 | 61 | 112 | 0.0 | 0.0 | 0.00 | 0.00 | 0.00 | 82 | 1009.8 |
| 20260506070453 | 61 | 180 | 0.0 | 0.0 | 0.00 | 0.00 | 0.00 | 82 | 1009.9 |
| 20260506061636 | 62 | 135 | 0.0 | 0.0 | 0.00 | 0.00 | 0.00 | 79 | 1010.0 |
| 20260506060635 | 62 | 180 | 0.0 | 0.0 | 0.00 | 0.00 | 0.00 | 79 | 1010.0 |
| 20260506050653 | 64 | 180 | 0.0 | 1.0 | 0.00 | 0.00 | 0.00 | 74 | 1010.7 |
| 20260506044736 | 64 | 135 | 1.0 | 3.0 | 0.00 | 0.00 | 0.00 | 74 | 1010.5 |
| 20260506043738 | 65 | 112 | 0.0 | 0.0 | 0.00 | 0.00 | 0.00 | 73 | 1010.6 |
| 20260506042752 | 65 | 186 | 0.0 | 1.0 | 0.00 | 0.00 | 0.00 | 73 | 1010.6 |
| 20260506041835 | 65 | 231 | 1.0 | 4.0 | 0.00 | 0.00 | 0.00 | 73 | 1010.7 |
| 20260506040835 | 66 | 83 | 0.0 | 9.0 | 0.00 | 0.00 | 0.00 | 73 | 1010.6 |
| 20260506035847 | 66 | 135 | 0.0 | 0.0 | 0.00 | 0.00 | 0.00 | 72 | 1010.5 |
| 20260506033931 | 67 | 113 | 1.0 | 5.0 | 0.00 | 0.00 | 0.00 | 72 | 1010.7 |
| 20260506031946 | 67 | 127 | 0.0 | 2.0 | 0.00 | 0.00 | 0.00 | 71 | 1010.5 |
| 20260506031030 | 68 | 177 | 0.0 | 1.0 | 0.00 | 0.00 | 0.00 | 71 | 1010.4 |
| 20260506024129 | 69 | 116 | 1.0 | 4.0 | 0.00 | 0.00 | 0.00 | 69 | 1010.2 |
| 20260506023146 | 69 | 65 | 1.0 | 6.0 | 0.00 | 0.00 | 0.00 | 69 | 1010.0 |
| 20260506022229 | 69 | 137 | 0.0 | 0.0 | 0.00 | 0.00 | 0.00 | 69 | 1009.9 |
| 20260506021232 | 70 | 168 | 0.0 | 2.0 | 0.00 | 0.00 | 0.00 | 68 | 1009.8 |
| 20260506020230 | 70 | 105 | 0.0 | 1.0 | 0.00 | 0.00 | 0.00 | 67 | 1009.9 |
| 20260506014229 | 70 | 101 | 0.0 | 1.0 | 0.00 | 0.00 | 0.00 | 64 | 1009.8 |
| 20260506013229 | 70 | 45 | 0.0 | 5.0 | 0.00 | 0.00 | 0.00 | 62 | 1009.7 |
| 20260506012230 | 69 | 149 | 0.0 | 1.0 | 0.00 | 0.00 | 0.00 | 60 | 1009.6 |
| 20260506011330 | 69 | 90 | 0.0 | 0.0 | 0.00 | 0.00 | 0.00 | 59 | 1009.3 |
| 20260506010345 | 69 | 90 | 0.0 | 0.0 | 0.00 | 0.00 | 0.00 | 57 | 1009.2 |
| 20260506005430 | 70 | 90 | 0.0 | 0.0 | 0.00 | 0.00 | 0.00 | 57 | 1009.3 |
| 20260506004445 | 70 | 90 | 0.0 | 0.0 | 0.00 | 0.00 | 0.00 | 55 | 1009.1 |
| 20260506003530 | 71 | 90 | 0.0 | 0.0 | 0.00 | 0.00 | 0.00 | 53 | 1008.8 |
| 20260506001632 | 74 | 90 | 0.0 | 0.0 | 0.00 | 0.00 | 0.00 | 50 | 1008.3 |
| 20260506000631 | 75 | 90 | 0.0 | 0.0 | 0.00 | 0.00 | 0.00 | 48 | 1008.4 |
| 20260505235629 | 76 | 90 | 0.0 | 0.0 | 0.00 | 0.00 | 0.00 | 47 | 1008.3 |
| 20260505234631 | 77 | 315 | 0.0 | 0.0 | 0.00 | 0.00 | 0.00 | 45 | 1008.3 |
| 20260505233647 | 77 | 157 | 0.0 | 0.0 | 0.00 | 0.00 | 0.00 | 45 | 1008.5 |
| 20260505232731 | 78 | 124 | 0.0 | 0.0 | 0.00 | 0.00 | 0.00 | 44 | 1008.4 |
| 20260505231731 | 78 | 135 | 0.0 | 0.0 | 0.00 | 0.00 | 0.00 | 43 | 1008.4 |
| 20260505230829 | 78 | 135 | 0.0 | 0.0 | 0.00 | 0.00 | 0.00 | 42 | 1008.5 |
| 20260505225928 | 79 | 135 | 0.0 | 0.0 | 0.00 | 0.00 | 0.00 | 43 | 1008.7 |
| 20260505224930 | 79 | 90 | 0.0 | 0.0 | 0.00 | 0.00 | 0.00 | 42 | 1008.7 |
| 20260505223945 | 79 | 225 | 0.0 | 0.0 | 0.00 | 0.00 | 0.00 | 41 | 1008.7 |
| 20260505223029 | 80 | 187 | 0.0 | 0.0 | 0.00 | 0.00 | 0.00 | 40 | 1008.9 |
| 20260505222046 | 80 | 127 | 2.0 | 5.0 | 0.00 | 0.00 | 0.00 | 39 | 1008.8 |
| 20260505221031 | 81 | 125 | 0.0 | 3.0 | 0.00 | 0.00 | 0.00 | 38 | 1008.7 |
| 20260505220048 | 83 | 159 | 0.0 | 1.0 | 0.00 | 0.00 | 0.00 | 37 | 1008.8 |
| 20260505215129 | 83 | 143 | 0.0 | 3.0 | 0.00 | 0.00 | 0.00 | 37 | 1008.5 |
| 20260505213131 | 83 | 225 | 0.0 | 1.0 | 0.00 | 0.00 | 0.00 | 38 | 1008.5 |
| 20260505211230 | 82 | 127 | 2.0 | 5.0 | 0.00 | 0.00 | 0.00 | 37 | 1008.8 |
| 20260505210245 | 83 | 206 | 0.0 | 3.0 | 0.00 | 0.00 | 0.00 | 36 | 1008.8 |
| 20260505205330 | 83 | 140 | 0.0 | 1.0 | 0.00 | 0.00 | 0.00 | 37 | 1008.9 |
| 20260505204329 | 82 | 28 | 1.0 | 3.0 | 0.00 | 0.00 | 0.00 | 38 | 1008.9 |
| 20260505203347 | 81 | 135 | 0.0 | 2.0 | 0.00 | 0.00 | 0.00 | 39 | 1008.9 |
| 20260505202430 | 82 | 145 | 2.0 | 5.0 | 0.00 | 0.00 | 0.00 | 38 | 1009.2 |
| 20260505195447 | 82 | 145 | 1.0 | 3.0 | 0.00 | 0.00 | 0.00 | 37 | 1009.7 |
| 20260505194529 | 82 | 136 | 0.0 | 2.0 | 0.00 | 0.00 | 0.00 | 37 | 1009.6 |
| 20260505193548 | 83 | 170 | 0.0 | 3.0 | 0.00 | 0.00 | 0.00 | 37 | 1009.8 |
| 20260505192631 | 83 | 187 | 0.0 | 3.0 | 0.00 | 0.00 | 0.00 | 39 | 1009.9 |
| 20260505191729 | 82 | 132 | 0.0 | 1.0 | 0.00 | 0.00 | 0.00 | 39 | 1009.9 |
| 20260505190730 | 82 | 221 | 0.0 | 0.0 | 0.00 | 0.00 | 0.00 | 39 | 1010.3 |
| 20260505185731 | 82 | 136 | 3.0 | 7.0 | 0.00 | 0.00 | 0.00 | 40 | 1010.6 |
| 20260505184829 | 82 | 224 | 0.0 | 2.0 | 0.00 | 0.00 | 0.00 | 40 | 1010.5 |
| 20260505184730 | 81 | 135 | 0.0 | 1.0 | 0.00 | 0.00 | 0.00 | 40 | 1010.7 |
| 20260505183731 | 82 | 224 | 1.0 | 3.0 | 0.00 | 0.00 | 0.00 | 39 | 1010.8 |
| 20260505182731 | 82 | 51 | 1.0 | 6.0 | 0.00 | 0.00 | 0.00 | 40 | 1010.9 |
| 20260505181730 | 81 | 162 | 0.0 | 2.0 | 0.00 | 0.00 | 0.00 | 41 | 1011.1 |
| 20260505180828 | 81 | 225 | 1.0 | 3.0 | 0.00 | 0.00 | 0.00 | 41 | 1011.2 |
| 20260505174828 | 79 | 76 | 0.0 | 4.0 | 0.00 | 0.00 | 0.00 | 46 | 1011.4 |
| 20260505173830 | 79 | 145 | 1.0 | 4.0 | 0.00 | 0.00 | 0.00 | 46 | 1011.4 |
| 20260505173738 | 79 | 144 | 3.0 | 6.0 | 0.00 | 0.00 | 0.00 | 47 | 1011.5 |
| 20260505172729 | 80 | 180 | 0.0 | 0.0 | 0.00 | 0.00 | 0.00 | 48 | 1011.4 |
| 20260505171730 | 79 | 48 | 2.0 | 6.0 | 0.00 | 0.00 | 0.00 | 48 | 1011.4 |
| 20260505170730 | 79 | 180 | 0.0 | 1.0 | 0.00 | 0.00 | 0.00 | 48 | 1011.3 |
| 20260505165829 | 79 | 200 | 2.0 | 6.0 | 0.00 | 0.00 | 0.00 | 47 | 1011.5 |
| 20260505164830 | 80 | 67 | 0.0 | 3.0 | 0.00 | 0.00 | 0.00 | 47 | 1011.6 |
| 20260505163848 | 79 | 225 | 0.0 | 0.0 | 0.00 | 0.00 | 0.00 | 47 | 1011.8 |
| 20260505162028 | 78 | 57 | 1.0 | 3.0 | 0.00 | 0.00 | 0.00 | 50 | 1012.1 |
| 20260505161028 | 77 | 73 | 0.0 | 3.0 | 0.00 | 0.00 | 0.00 | 52 | 1011.9 |
| 20260505153028 | 76 | 140 | 0.0 | 2.0 | 0.00 | 0.00 | 0.00 | 58 | 1012.4 |
| 20260505151028 | 75 | 180 | 0.0 | 1.0 | 0.00 | 0.00 | 0.00 | 59 | 1012.4 |
| 20260505140130 | 71 | 225 | 0.0 | 0.0 | 0.00 | 0.00 | 0.00 | 64 | 1012.2 |
| 20260505130128 | 66 | 190 | 0.0 | 1.0 | 0.00 | 0.00 | 0.00 | 71 | 1012.3 |
| 20260505124231 | 64 | 135 | 0.0 | 0.0 | 0.00 | 0.00 | 0.00 | 77 | 1012.3 |